Dewpoint
0 1 1 1 -0 -3 -4 -3 -0 1 3 4 5 7 7 8 8 7 7 7 7 2 1 2 2 2 1 0 1 -1 -0 -2 -3 -2 -1 -3 -5 -8 -9 -9 -8 -7 -4 -4 -5 -4 -4 -5 -3 -4 -8 -11 -8 -8
-1 0 1 -1 -3 -5 -4 -1 2 -0 2 1 4 7 7 8 8 6 6 6 7 5 -1 1 1 2 3 2 -0 -1 -2 -5 -5 -3 -5 -5 -5 -5 -6 -7 -8 -7 -7 -5 -5 -7 -9 -4 -8 -10 -11 -10 -8 -7
-1 -0 -3 -6 -6 -3 -2 -1 2 2 1 3 5 7 7 8 8 6 5 5 5 -1 -2 -1 -1 1 0 1 1 -1 -7 -8 -9 -11 -5 -5 -6 -7 -5 -7 -8 -9 -8 -6 -8 -11 -8 -8 -7 -10 -12 -10 -8 -5
-2 -3 -7 -9 -4 -2 -1 1 2 3 1 5 6 6 7 7 6 5 5 4 2 -0 -3 -4 -3 -2 -1 -3 -5 -6 -8 -9 -11 -11 -7 -5 -8 -8 -7 -8 -7 -9 -8 -7 -5 -8 -9 -11 -12 -12 -10 -8 -5 -4
-11 -13 -14 -7 -3 -1 0 2 4 3 4 5 6 7 7 6 4 4 4 3 3 3 -3 -5 -8 -8 -8 -10 -11 -9 -9 -11 -11 -8 -6 -7 -9 -8 -8 -7 -7 -10 -8 -5 -7 -10 -8 -11 -11 -10 -9 -7 -4 -3
-5 -7 -4 -2 -1 0 2 3 4 5 5 5 7 7 5 4 5 5 2 -0 2 1 -4 -3 -8 -10 -9 -11 -10 -9 -10 -11 -10 -10 -8 -8 -8 -8 -6 -6 -9 -9 -10 -11 -10 -12 -10 -10 -10 -9 -8 -5 -4 -4
-3 -3 -3 -1 1 2 1 4 4 4 4 4 4 4 4 5 5 3 -1 -1 -3 -8 -12 -5 -7 -9 -10 -11 -11 -11 -11 -11 -11 -10 -8 -9 -8 -7 -6 -7 -11 -11 -11 -10 -10 -9 -8 -8 -7 -9 -4 -3 -3 -4
-2 -1 2 2 2 2 3 4 3 3 4 4 4 3 3 3 -2 -7 -10 -15 -14 -15 -11 -4 -6 -7 -8 -7 -4 -6 -7 -7 -7 -7 -6 -7 -7 -6 -5 -8 -9 -9 -9 -9 -9 -8 -7 -8 -8 -5 -3 -3 -3 -4
1 1 1 2 2 3 4 3 3 3 3 2 0 -7 -11 -12 -9 -7 -9 -9 -10 -12 -5 -5 -5 -4 -6 -4 -4 -4 -5 -4 -5 -5 -5 -6 -5 -4 -8 -7 -5 -6 -4 -4 -4 -5 -3 -3 -2 -2 -2 -3 -4 -6
0 0 1 1 2 2 3 3 2 0 -4 -7 -15 -19 -10 -11 -13 -14 -14 -15 -11 -7 -6 -4 -5 -3 -4 -5 -5 -5 -5 -5 -4 -6 -5 -4 -5 -7 -7 -5 -4 -4 -4 -4 -3 -2 -3 -4 -4 -4 -4 -3 -3 -4
-1 -0 0 1 0 -0 -1 -3 -5 -7 -11 -17 -10 -6 -12 -14 -14 -12 -6 -6 -7 -4 -5 -5 -5 -4 -5 -3 -3 -5 -4 -5 -4 -5 -4 -4 -4 -5 -3 -4 -3 -3 -3 -4 -4 -4 -3 -3 -3 -3 -4 -3 -3 -4
-1 -1 -0 -0 -1 -2 -5 -10 -12 -14 -18 -14 -12 -13 -14 -12 -10 -7 -5 -5 -5 -4 -5 -5 -5 -4 -4 -5 -4 -4 -4 -4 -4 -5 -3 -3 -5 -3 -4 -4 -3 -3 -3 -4 -4 -4 -4 -4 -4 -4 -5 -5 -5 -5
-3 -4 -4 -4 -4 -4 -6 -10 -13 -16 -15 -16 -16 -14 -13 -10 -9 -9 -4 -3 -3 -4 -4 -4 -3 -4 -4 -6 -5 -4 -4 -4 -4 -4 -4 -4 -5 -3 -4 -4 -3 -3 -3 -3 -4 -4 -4 -5 -7 -7 -7 -7 -7 -7
-9 -10 -11 -12 -14 -16 -18 -15 -15 -17 -20 -17 -11 -8 -8 -7 -5 -6 -5 -4 -5 -5 -5 -5 -4 -4 -5 -5 -5 -5 -5 -4 -3 -3 -3 -5 -5 -4 -4 -3 -3 -3 -3 -4 -4 -5 -6 -7 -8 -9 -9 -10 -11 -10
-10 -12 -13 -13 -12 -13 -14 -15 -17 -24 -15 -9 -8 -6 -5 -4 -4 -4 -4 -4 -5 -6 -7 -5 -4 -5 -4 -4 -4 -4 -3 -4 -4 -4 -4 -5 -5 -4 -3 -3 -4 -5 -6 -6 -6 -7 -8 -9 -9 -9 -10 -9 -8 -8
-10 -12 -10 -11 -15 -15 -18 -21 -21 -17 -9 -6 -6 -4 -4 -4 -5 -4 -4 -4 -5 -6 -6 -5 -4 -4 -3 -4 -3 -5 -6 -5 -5 -4 -5 -4 -3 -4 -4 -5 -6 -7 -7 -8 -8 -9 -10 -11 -11 -10 -10 -11 -12 -11
-15 -9 -11 -13 -14 -15 -21 -24 -17 -9 -6 -5 -6 -5 -5 -4 -6 -5 -5 -5 -5 -6 -4 -4 -5 -6 -5 -3 -3 -4 -4 -5 -6 -5 -4 -4 -5 -5 -6 -7 -8 -8 -9 -11 -13 -13 -11 -11 -13 -12 -12 -11 -11 -11
-15 -10 -13 -18 -20 -21 -22 -14 -9 -7 -6 -6 -6 -6 -5 -5 -5 -5 -4 -4 -5 -5 -5 -4 -5 -4 -4 -4 -4 -5 -6 -5 -5 -5 -5 -6 -6 -7 -7 -8 -9 -10 -12 -14 -14 -12 -13 -13 -12 -12 -12 -13 -12 -12
-12 -12 -13 -14 -17 -15 -11 -9 -8 -5 -5 -6 -6 -6 -6 -6 -6 -6 -5 -5 -5 -5 -5 -5 -5 -4 -4 -5 -5 -6 -5 -6 -5 -5 -9 -10 -9 -8 -8 -9 -9 -11 -12 -13 -14 -13 -13 -14 -12 -13 -13 -14 -14 -14
-15 -15 -15 -15 -15 -10 -7 -8 -7 -7 -6 -6 -5 -5 -6 -6 -7 -7 -6 -4 -5 -6 -6 -5 -5 -6 -6 -6 -6 -6 -6 -5 -6 -11 -9 -10 -11 -10 -9 -10 -11 -12 -14 -14 -14 -15 -16 -14 -14 -14 -15 -15 -16 -16
-20 -18 -15 -16 -11 -8 -7 -7 -7 -6 -6 -6 -5 -6 -5 -5 -6 -6 -6 -4 -5 -5 -5 -6 -7 -7 -6 -6 -5 -5 -5 -8 -12 -10 -9 -10 -10 -10 -10 -12 -13 -14 -15 -17 -18 -18 -17 -15 -16 -16 -17 -18 -19 -19
-16 -16 -15 -15 -12 -8 -7 -6 -7 -7 -7 -6 -6 -6 -6 -6 -5 -5 -5 -5 -5 -5 -6 -7 -7 -6 -6 -5 -5 -6 -10 -12 -9 -10 -10 -11 -10 -12 -13 -14 -16 -18 -19 -19 -19 -18 -18 -18 -19 -19 -19 -19 -18 -18
-14 -13 -12 -11 -10 -8 -6 -7 -7 -8 -7 -6 -7 -6 -6 -6 -5 -5 -5 -5 -5 -5 -6 -6 -5 -5 -4 -4 -6 -12 -11 -9 -9 -10 -11 -12 -12 -13 -15 -18 -20 -21 -21 -21 -20 -19 -19 -19 -19 -18 -18 -18 -18 -17
-10 -9 -7 -7 -9 -9 -7 -6 -6 -6 -6 -5 -6 -6 -6 -5 -5 -5 -5 -7 -6 -5 -5 -4 -4 -5 -7 -9 -12 -11 -10 -9 -10 -11 -12 -13 -14 -17 -20 -20 -21 -22 -22 -20 -20 -19 -19 -18 -18 -18 -18 -17 -17 -17
-11 -9 -9 -10 -6 -8 -10 -10 -8 -8 -8 -8 -8 -8 -7 -7 -7 -7 -7 -9 -7 -6 -5 -5 -5 -7 -10 -12 -11 -10 -9 -10 -12 -14 -14 -15 -20 -21 -21 -22 -23 -21 -20 -20 -19 -19 -18 -18 -18 -17 -17 -17 -17 -17
-10 -8 -11 -10 -8 -9 -9 -10 -10 -9 -9 -8 -8 -7 -8 -8 -8 -8 -8 -9 -8 -7 -7 -8 -8 -9 -10 -10 -9 -9 -9 -11 -15 -16 -18 -21 -21 -22 -23 -23 -21 -20 -20 -19 -19 -18 -18 -18 -17 -17 -17 -17 -17 -17
-10 -10 -7 -8 -7 -7 -8 -7 -7 -8 -9 -9 -8 -9 -9 -9 -8 -9 -9 -9 -9 -10 -9 -8 -8 -9 -9 -9 -8 -9 -11 -15 -17 -19 -22 -22 -23 -24 -24 -21 -21 -20 -20 -19 -18 -18 -18 -17 -17 -17 -17 -17 -17 -17
-8 -7 -10 -7 -6 -7 -10 -10 -9 -8 -8 -8 -8 -8 -8 -9 -9 -11 -7 -7 -9 -10 -9 -8 -7 -7 -8 -8 -9 -13 -18 -19 -19 -21 -22 -22 -24 -25 -22 -21 -20 -20 -19 -19 -18 -18 -17 -17 -17 -17 -17 -17 -17 -17
-7 -6 -7 -10 -8 -7 -8 -9 -8 -8 -8 -8 -8 -9 -9 -9 -9 -8 -9 -9 -9 -9 -8 -8 -7 -7 -8 -9 -13 -19 -19 -21 -22 -22 -23 -23 -25 -24 -21 -21 -20 -20 -19 -18 -18 -17 -17 -17 -17 -17 -17 -17 -17 -17
-8 -6 -7 -9 -11 -9 -8 -8 -8 -8 -8 -8 -8 -9 -8 -8 -9 -9 -9 -9 -8 -8 -7 -7 -7 -8 -8 -10 -18 -20 -20 -20 -21 -23 -24 -25 -25 -22 -21 -20 -20 -19 -19 -18 -18 -17 -17 -17 -17 -17 -17 -17 -17 -17
-7 -7 -7 -7 -9 -7 -7 -8 -8 -7 -7 -6 -6 -6 -7 -7 -7 -7 -7 -7 -7 -7 -7 -7 -7 -8 -9 -13 -18 -21 -20 -20 -22 -23 -24 -25 -23 -21 -21 -20 -20 -19 -19 -18 -18 -17 -17 -17 -17 -17 -17 -17 -17 -17
-7 -6 -8 -10 -9 -7 -6 -6 -6 -6 -6 -6 -6 -6 -6 -7 -7 -7 -7 -7 -6 -6 -6 -6 -7 -8 -11 -14 -17 -17 -20 -23 -24 -24 -25 -25 -22 -21 -21 -21 -20 -19 -19 -18 -18 -17 -17 -17 -17 -17 -17 -17 -17 -17
-7 -6 -6 -6 -7 -7 -7 -7 -8 -9 -8 -8 -8 -8 -7 -7 -7 -8 -8 -9 -7 -7 -6 -7 -8 -10 -12 -16 -21 -22 -22 -23 -24 -25 -26 -24 -21 -21 -21 -21 -21 -20 -19 -19 -18 -18 -17 -17 -17 -17 -17 -17 -17 -17
Wind_Speed
34 40 38 34 28 25 29 30 29 30 35 41 33 39 41 39 38 58 36 43 34 10 10 8 7 11 13 11 5 12 7 2 2 3 3 4 3 4 2 3 4 7 7 4 3 4 9 13 8 5 4 14 14 19
34 29 30 25 27 27 28 29 26 29 37 40 38 37 43 41 39 49 29 30 34 13 9 15 12 12 8 20 20 19 1 6 8 4 1 3 2 2 3 2 1 4 5 4 8 5 4 20 7 9 13 17 20 13
30 30 26 27 27 27 26 31 27 31 33 36 39 35 32 39 39 49 35 32 28 19 18 15 14 15 13 13 11 9 7 7 7 6 6 2 2 3 4 4 4 4 5 3 1 6 13 15 24 24 18 19 17 15
26 27 26 24 24 25 26 29 27 30 35 35 34 32 30 33 40 47 36 33 29 17 6 8 16 11 12 13 9 6 15 14 17 10 4 2 2 4 3 0 4 4 8 6 6 11 13 20 24 25 14 16 15 18
24 23 25 23 22 23 26 26 22 27 30 32 34 27 30 36 40 38 31 20 21 10 6 10 18 15 13 11 11 11 16 21 12 4 2 2 3 3 2 1 5 9 6 5 6 8 7 9 10 8 12 15 13 11
21 22 21 23 23 24 24 22 24 32 31 34 34 26 36 40 40 32 10 16 17 22 12 4 9 13 16 15 18 16 16 13 5 4 3 3 3 3 3 3 6 12 16 17 10 13 15 18 15 18 20 15 11 10
21 21 22 23 25 25 25 28 33 35 34 38 39 38 39 38 35 14 11 25 28 17 10 5 3 5 10 11 12 12 8 6 4 4 2 3 2 4 2 3 3 7 12 14 16 17 17 20 13 13 10 11 11 12
18 18 19 23 24 29 39 35 39 40 49 47 48 47 38 28 27 37 35 26 18 14 9 4 3 4 5 4 4 3 3 4 4 3 3 2 3 1 4 8 9 11 10 16 14 12 19 18 18 10 10 11 10 14
19 18 25 34 50 51 39 50 55 59 60 57 49 47 44 32 23 30 28 22 15 9 6 4 6 4 8 4 4 3 3 2 2 1 1 3 2 5 6 5 9 15 13 17 19 12 6 5 8 10 10 12 14 19
42 51 54 57 54 58 60 62 62 60 58 58 42 23 9 19 32 25 10 5 7 8 6 3 6 4 8 4 2 3 3 2 1 1 5 3 3 10 10 9 9 9 8 3 3 1 6 6 8 11 15 17 19 21
58 59 61 64 66 67 66 62 58 56 49 28 7 8 38 22 7 6 6 6 2 3 4 4 6 5 5 3 3 1 2 2 2 2 3 2 3 2 5 4 1 1 3 4 4 6 7 9 14 18 21 23 24 24
57 56 57 58 61 60 56 51 46 35 9 10 30 32 13 5 7 6 2 1 3 4 3 5 6 8 6 4 4 2 2 2 2 6 1 2 2 4 3 4 4 4 5 8 8 11 12 14 17 17 15 15 15 15
49 49 49 48 45 44 41 32 19 23 50 41 13 6 2 5 6 4 4 2 3 4 7 9 4 5 5 6 5 2 2 2 6 2 3 2 2 4 5 6 7 10 14 16 14 14 13 14 17 18 16 14 16 16
43 42 41 39 37 33 29 26 50 35 5 6 6 6 3 2 3 2 3 5 6 18 25 19 7 5 4 3 1 3 2 3 1 3 3 1 3 6 7 10 13 19 18 17 18 13 11 13 15 15 14 16 18 18
36 35 32 30 31 35 35 32 13 5 6 6 6 5 4 4 8 11 15 16 20 27 19 13 8 5 2 3 0 2 3 3 4 3 1 3 5 7 8 11 13 14 17 15 13 12 14 15 16 17 17 17 18 18
31 32 26 21 26 28 18 12 13 10 7 7 8 5 7 7 4 15 22 19 20 21 15 6 3 3 2 3 3 5 4 4 2 2 1 6 6 8 9 12 13 15 14 11 12 14 15 16 15 14 13 12 16 15
31 28 19 19 23 14 10 12 11 10 6 5 3 12 12 16 10 13 19 17 19 7 2 3 3 3 3 3 3 3 3 2 3 1 4 6 8 11 10 10 12 11 11 13 14 15 14 14 15 13 14 14 14 14
27 20 19 20 18 15 14 11 7 8 8 8 4 5 10 13 18 16 14 17 7 5 6 3 6 4 4 5 2 2 3 2 1 3 5 5 8 8 10 10 11 9 10 13 16 15 15 15 15 15 16 17 15 16
21 18 17 16 15 8 6 7 7 6 8 7 12 13 13 14 13 12 15 12 8 8 10 4 3 3 2 3 3 5 3 1 1 4 6 7 8 9 10 8 8 9 12 15 16 15 15 15 13 15 14 16 17 20
16 14 12 10 6 7 6 6 6 7 4 4 10 11 10 9 12 12 14 13 11 5 2 2 2 4 6 6 4 2 2 2 4 4 6 9 10 8 8 10 9 11 12 13 14 16 17 15 14 14 16 21 25 28
13 13 13 13 14 11 7 5 7 6 8 6 13 11 7 12 10 9 10 13 4 3 2 5 6 6 3 1 1 1 2 2 3 4 4 6 6 6 8 8 10 12 13 15 16 17 17 16 16 19 22 26 26 26
11 9 10 10 7 6 7 6 8 9 5 10 11 7 7 6 7 10 13 7 4 5 5 5 5 3 3 3 3 1 2 2 3 4 5 6 5 5 7 10 11 13 15 16 17 18 19 20 21 22 24 24 25 26
7 6 6 5 5 5 4 3 4 3 4 5 6 4 2 4 5 12 4 4 4 8 9 7 5 5 6 7 5 3 0 1 3 4 4 3 3 5 7 9 11 14 15 15 16 17 18 19 20 20 22 23 25 27
6 4 4 4 6 2 3 3 3 4 4 2 2 3 2 4 8 2 2 3 6 8 11 11 10 11 9 7 5 2 1 1 1 2 1 2 3 4 6 9 12 14 14 14 15 16 16 17 19 20 22 24 25 27
3 7 4 4 4 4 4 3 3 3 2 1 3 1 2 4 2 2 2 4 11 14 14 14 13 9 8 8 5 4 3 1 1 1 0 1 2 4 7 10 11 12 12 13 14 15 16 17 18 20 22 24 26 27
6 5 3 2 0 3 2 3 2 3 3 2 1 3 2 2 2 4 3 7 12 19 19 17 14 12 9 6 4 5 5 4 2 2 1 1 2 5 8 9 10 9 11 13 14 15 16 17 19 21 22 23 24 25
3 1 3 3 4 5 4 4 4 3 3 4 3 2 3 2 4 3 3 9 10 15 14 12 9 7 5 5 6 6 6 5 3 2 2 1 4 7 8 8 9 10 11 12 13 15 16 17 19 20 21 21 22 22
3 2 4 2 3 2 3 2 3 4 3 4 7 3 6 6 3 2 5 12 13 13 13 12 10 8 6 5 6 8 8 7 5 4 2 3 6 7 8 8 9 10 10 11 12 13 14 15 16 18 18 19 19 19
2 3 4 3 2 1 2 3 3 3 4 8 4 3 3 3 2 4 12 13 11 10 9 10 10 9 8 8 9 9 7 7 6 4 2 4 5 6 7 7 8 9 8 9 11 12 12 13 14 16 16 17 17 17
1 5 3 2 3 1 1 4 1 2 5 5 3 3 3 3 4 4 6 8 9 9 10 9 8 7 7 10 10 10 9 8 6 4 3 4 5 6 6 6 7 7 8 9 9 9 10 10 11 12 12 13 13 13
4 5 2 2 2 1 1 3 5 4 4 4 6 6 5 3 5 8 11 13 14 15 16 15 11 10 10 12 11 10 10 8 7 4 4 4 5 5 5 6 6 6 7 8 9 9 9 9 10 11 11 12 12 13
2 2 3 1 1 2 3 1 1 2 2 3 4 6 4 4 3 5 10 14 19 19 17 14 11 10 11 10 10 10 7 7 6 5 4 4 4 4 5 5 6 6 6 7 8 8 8 8 9 10 10 11 12 12
2 1 1 1 2 2 2 2 3 4 1 2 2 1 2 3 3 3 3 4 7 12 13 9 8 9 10 9 8 9 9 7 5 4 4 4 3 3 4 5 6 6 6 7 7 7 7 8 8 8 9 10 10 11
Wind_Direction
187 189 190 192 186 209 215 215 212 207 208 213 207 198 206 212 222 203 196 196 192 125 112 149 152 149 142 143 134 151 111 141 122 120 162 179 173 193 174 142 177 175 177 190 153 207 258 162 134 204 231 303 289 298
184 187 187 178 200 212 214 215 212 209 210 210 217 203 209 204 214 205 188 190 198 143 116 110 117 143 197 172 137 157 95 145 160 113 150 131 139 154 153 222 241 212 204 184 206 223 245 191 208 215 293 291 296 289
184 186 184 192 204 206 213 209 210 212 207 209 210 209 205 208 215 203 186 176 160 103 79 94 81 107 113 121 136 122 175 151 147 123 143 129 145 152 169 219 205 228 187 232 239 242 238 237 239 270 279 287 288 292
187 192 194 200 205 208 210 208 212 203 201 206 209 205 206 203 201 197 177 154 153 113 90 48 72 83 106 134 152 149 157 139 136 124 96 124 145 182 183 247 216 206 161 219 258 273 268 261 264 265 278 282 283 299
185 189 198 206 208 213 208 209 205 198 201 203 203 200 200 190 173 157 140 130 137 133 119 125 85 71 102 126 121 118 148 143 128 95 88 126 120 141 138 198 229 190 200 199 236 240 248 268 252 278 292 280 275 282
188 196 203 207 204 208 209 210 192 192 196 192 181 174 168 159 161 153 95 93 115 141 105 101 81 83 97 116 122 129 135 133 100 98 102 118 146 156 168 234 252 228 230 239 253 274 267 273 261 280 291 273 276 277
194 200 206 208 210 203 205 196 184 184 184 163 143 148 155 156 154 137 142 134 122 108 100 102 88 126 115 114 99 89 99 102 103 106 90 136 147 178 190 237 255 230 254 266 275 269 272 267 257 293 274 270 270 277
200 206 197 191 197 191 175 171 176 166 148 142 141 138 134 129 120 113 119 125 124 99 89 106 100 126 139 102 92 100 103 94 66 103 117 125 143 190 254 247 272 287 289 291 284 285 281 273 276 272 269 277 273 278
188 184 189 178 161 169 164 156 149 140 136 130 121 114 110 103 101 112 113 105 91 86 105 98 135 150 158 108 112 88 89 84 89 94 107 156 185 228 246 274 304 309 287 275 283 289 293 294 293 301 295 276 280 283
145 144 148 150 157 147 142 139 135 128 120 117 121 111 88 119 117 114 96 77 51 50 63 89 122 117 145 139 108 119 56 98 132 167 145 209 256 255 269 289 302 336 344 338 177 71 350 338 332 319 300 293 295 297
131 134 135 133 130 128 127 126 126 126 129 130 83 86 127 122 105 69 73 60 61 70 63 90 107 121 125 112 106 97 126 141 170 190 205 229 267 248 224 261 213 67 60 42 17 354 338 316 310 305 299 297 297 294
121 122 124 126 126 125 127 134 136 134 123 114 126 124 109 90 73 78 49 121 56 127 113 111 112 102 104 113 109 163 115 177 197 143 203 250 245 206 250 272 249 235 288 324 331 322 315 306 303 307 315 319 319 312
105 107 113 117 119 125 134 137 135 128 119 118 109 85 71 18 62 118 150 77 98 140 139 141 122 115 111 80 77 167 109 177 132 212 239 245 285 276 256 263 278 288 286 294 306 307 309 314 318 322 323 320 314 315
118 120 123 127 131 136 145 142 129 131 111 75 69 52 76 1 77 120 108 125 133 136 132 118 86 80 89 81 130 148 146 141 177 222 228 270 288 248 272 290 293 296 286 300 303 298 310 319 322 323 323 323 322 319
118 122 120 118 127 120 129 135 142 152 75 76 66 61 48 114 76 103 105 100 116 122 111 90 73 98 78 104 314 112 147 219 218 233 201 291 325 321 312 313 313 334 338 330 323 328 342 346 341 332 327 319 311 305
120 126 110 128 138 136 119 97 77 77 69 60 61 85 129 96 74 95 101 101 118 118 104 90 109 84 79 124 151 214 179 217 219 203 277 323 336 334 335 332 340 346 347 356 2 355 348 343 346 348 348 345 348 346
125 99 113 127 142 145 106 77 46 52 68 71 61 92 100 103 102 108 125 124 136 117 108 102 104 154 125 168 195 192 208 199 173 329 331 345 341 335 344 358 352 348 355 360 358 354 349 340 339 346 346 340 343 335
101 104 113 123 135 122 94 48 70 64 60 69 78 87 102 112 119 113 124 142 137 137 149 165 127 164 166 175 205 204 170 153 327 348 351 351 347 356 357 353 349 359 359 355 351 347 343 341 337 337 335 330 327 323
100 108 113 117 125 98 66 51 49 80 60 67 88 92 110 122 129 140 156 162 165 161 145 144 122 173 187 187 145 141 151 88 77 18 26 22 8 351 345 352 346 349 350 346 342 340 336 333 337 334 333 332 327 322
94 92 101 112 88 78 76 58 69 91 106 109 108 98 100 113 137 156 160 157 153 161 163 177 180 178 148 136 119 101 80 24 7 46 38 12 1 350 346 350 349 343 339 337 335 330 331 334 336 332 326 325 322 319
97 87 89 90 63 66 82 67 62 78 104 81 128 116 112 145 149 158 167 171 198 204 200 195 164 148 149 150 153 121 39 12 28 19 25 7 3 352 346 352 348 342 339 337 335 335 335 336 332 328 325 325 325 324
90 93 77 60 68 67 73 61 106 112 97 136 146 148 140 149 162 180 169 196 215 205 181 166 159 186 205 188 173 157 65 19 11 20 23 10 358 356 348 346 345 343 341 339 338 336 334 333 332 331 330 332 333 332
91 80 64 60 91 73 93 100 109 106 117 156 149 130 142 143 167 158 199 214 217 199 199 203 186 167 161 156 154 143 57 323 0 24 20 23 4 347 344 343 341 337 336 336 337 338 338 337 338 340 339 340 338 337
85 71 55 59 61 113 107 68 90 102 112 125 115 112 131 138 158 175 224 229 200 184 187 184 175 160 156 163 172 194 195 136 13 16 38 11 350 344 344 340 336 335 337 339 341 342 344 346 346 347 347 344 345 346
80 15 46 20 60 75 60 34 14 69 101 158 95 103 166 149 120 182 231 236 191 179 171 170 172 180 181 180 189 197 198 236 310 141 149 312 343 343 340 337 337 335 339 342 347 351 352 351 353 353 354 352 350 352
69 13 66 156 70 103 162 98 139 150 120 97 112 107 119 97 112 239 228 202 186 181 180 182 183 183 187 203 211 209 204 212 203 196 201 244 335 334 335 340 345 341 342 345 349 352 355 355 356 355 358 357 356 357
78 336 60 81 91 113 76 84 117 103 127 156 169 132 105 151 235 251 198 166 166 169 167 172 185 199 214 216 207 199 194 194 196 193 206 252 325 333 337 343 347 344 343 345 349 351 352 354 356 358 0 2 360 2
85 92 130 139 72 69 118 83 132 176 186 161 131 164 171 194 235 151 155 157 151 157 168 180 196 218 235 221 212 194 188 188 185 189 214 299 329 332 333 341 346 344 343 344 348 349 350 352 355 359 1 3 6 10
63 107 105 36 51 63 196 165 199 201 161 168 156 190 228 210 165 140 154 163 168 183 192 198 201 211 211 199 187 187 189 185 186 191 242 305 322 329 330 332 335 336 340 344 343 348 351 353 358 2 4 7 10 15
115 147 99 86 108 231 341 187 97 147 181 188 172 152 144 133 152 178 200 213 223 233 225 221 230 228 228 207 196 193 192 193 199 213 272 305 317 325 325 327 331 335 340 345 346 348 353 356 1 3 6 9 13 19
125 163 96 143 216 322 256 271 262 257 242 233 234 232 234 240 254 255 245 242 237 228 218 214 219 225 218 206 204 201 202 204 208 228 270 295 317 327 329 330 333 337 339 344 347 350 353 358 5 8 10 11 15 19
151 170 135 58 316 350 340 331 265 239 241 230 228 228 231 234 246 259 246 240 229 220 218 222 234 230 204 191 193 201 204 206 208 231 260 289 313 321 329 333 335 337 340 345 350 350 350 356 3 8 10 12 15 17
43 70 172 332 21 41 18 332 16 356 359 27 25 358 215 215 248 268 275 244 214 216 213 216 208 195 201 209 208 206 208 211 224 243 262 285 298 309 322 334 336 337 339 343 346 347 348 352 356 1 6 10 12 14
Height
1224 1233 1242 1250 1254 1265 1273 1279 1284 1289 1299 1307 1313 1320 1329 1337 1344 1351 1355 1366 1374 1380 1392 1397 1400 1404 1409 1414 1424 1439 1447 1452 1458 1459 1458 1462 1461 1463 1464 1464 1467 1469 1477 1481 1491 1494 1479 1461 1470 1470 1459 1457 1458 1455
1225 1233 1240 1246 1258 1264 1267 1273 1280 1285 1293 1297 1307 1315 1325 1332 1339 1346 1354 1359 1367 1377 1394 1397 1401 1405 1407 1409 1416 1431 1436 1438 1443 1451 1459 1461 1462 1466 1465 1467 1470 1470 1466 1469 1469 1461 1457 1456 1452 1455 1454 1454 1450 1448
1225 1233 1240 1248 1255 1262 1267 1272 1277 1282 1286 1295 1305 1310 1319 1327 1333 1341 1349 1356 1365 1378 1396 1399 1405 1410 1413 1413 1417 1426 1433 1435 1438 1440 1449 1455 1456 1461 1463 1464 1465 1465 1465 1463 1464 1450 1454 1455 1453 1452 1451 1449 1448 1446
1225 1233 1239 1245 1252 1259 1264 1269 1276 1279 1286 1293 1300 1307 1312 1321 1329 1339 1346 1353 1359 1372 1397 1413 1411 1413 1414 1417 1422 1425 1425 1431 1435 1441 1445 1451 1452 1457 1459 1460 1462 1460 1462 1460 1459 1452 1452 1449 1447 1446 1447 1447 1447 1448
1224 1230 1236 1243 1249 1254 1260 1264 1267 1275 1282 1289 1296 1303 1309 1318 1330 1338 1348 1354 1358 1363 1396 1414 1417 1418 1418 1422 1424 1426 1430 1432 1438 1443 1446 1450 1453 1455 1458 1460 1454 1451 1448 1452 1445 1445 1447 1448 1446 1444 1442 1441 1437 1438
1223 1228 1234 1240 1244 1250 1254 1261 1265 1274 1280 1289 1294 1301 1311 1322 1331 1340 1353 1361 1361 1366 1386 1412 1421 1422 1423 1426 1427 1431 1434 1437 1440 1443 1448 1450 1451 1454 1455 1453 1442 1442 1442 1442 1442 1441 1441 1441 1440 1439 1437 1437 1434 1433
1220 1225 1230 1234 1242 1248 1252 1257 1266 1272 1277 1286 1295 1308 1319 1326 1334 1342 1349 1356 1365 1370 1384 1412 1424 1427 1428 1429 1432 1434 1438 1439 1442 1445 1449 1450 1451 1453 1454 1448 1439 1438 1439 1440 1438 1439 1437 1434 1434 1432 1431 1431 1428 1427
1219 1223 1226 1230 1237 1242 1249 1258 1264 1272 1282 1291 1303 1313 1324 1330 1341 1350 1356 1363 1369 1372 1384 1406 1423 1428 1429 1431 1435 1438 1440 1441 1443 1448 1451 1451 1453 1453 1449 1438 1438 1437 1437 1435 1433 1433 1431 1428 1427 1427 1425 1424 1423 1424
1216 1221 1226 1231 1237 1243 1251 1260 1270 1280 1287 1297 1306 1318 1332 1343 1351 1360 1365 1368 1370 1376 1387 1400 1413 1424 1428 1432 1435 1438 1439 1443 1447 1448 1450 1452 1449 1447 1437 1438 1437 1435 1434 1430 1429 1428 1428 1427 1426 1424 1422 1421 1420 1421
1221 1226 1232 1240 1243 1249 1258 1268 1279 1283 1294 1300 1316 1327 1340 1351 1356 1361 1368 1369 1373 1383 1393 1405 1409 1417 1423 1429 1436 1440 1440 1444 1446 1448 1449 1449 1440 1435 1435 1434 1433 1432 1430 1427 1426 1425 1423 1423 1422 1420 1419 1420 1419 1418
1228 1234 1239 1244 1251 1261 1266 1280 1287 1293 1301 1311 1321 1333 1346 1352 1357 1359 1368 1376 1386 1395 1399 1405 1408 1413 1423 1425 1432 1438 1441 1448 1448 1448 1448 1443 1438 1434 1435 1433 1431 1430 1431 1429 1426 1423 1421 1421 1419 1418 1417 1416 1413 1411
1239 1244 1250 1256 1262 1269 1278 1288 1296 1301 1308 1312 1323 1337 1346 1352 1357 1369 1383 1388 1388 1395 1401 1405 1410 1414 1421 1426 1431 1440 1441 1446 1443 1447 1446 1441 1434 1434 1432 1431 1429 1429 1430 1426 1422 1421 1420 1419 1417 1416 1414 1412 1409 1407
1258 1264 1271 1276 1282 1289 1295 1302 1311 1312 1317 1322 1328 1340 1349 1361 1371 1373 1385 1386 1388 1391 1399 1403 1412 1416 1420 1424 1435 1440 1440 1443 1444 1444 1439 1431 1430 1432 1431 1429 1427 1426 1425 1423 1420 1418 1416 1415 1413 1412 1410 1408 1406 1403
1275 1280 1286 1291 1295 1301 1307 1311 1314 1319 1321 1325 1335 1357 1365 1374 1370 1371 1373 1379 1387 1392 1399 1402 1407 1412 1422 1427 1436 1441 1440 1438 1440 1439 1428 1432 1430 1429 1427 1426 1425 1423 1421 1419 1416 1413 1411 1411 1409 1408 1407 1404 1402 1399
1285 1289 1293 1299 1303 1308 1315 1317 1319 1323 1323 1335 1345 1369 1370 1369 1370 1373 1372 1377 1389 1391 1394 1405 1413 1417 1425 1432 1436 1437 1437 1437 1430 1428 1428 1428 1427 1426 1425 1425 1423 1420 1418 1416 1413 1411 1410 1409 1407 1405 1403 1400 1398 1395
1296 1298 1303 1309 1312 1315 1318 1321 1322 1322 1332 1343 1357 1371 1372 1368 1375 1373 1377 1384 1389 1395 1403 1411 1415 1418 1424 1427 1432 1437 1429 1427 1424 1426 1426 1426 1426 1425 1424 1422 1421 1419 1417 1415 1413 1412 1410 1408 1405 1403 1401 1398 1396 1393
1306 1308 1315 1318 1321 1322 1322 1322 1324 1335 1351 1360 1371 1368 1370 1372 1374 1377 1385 1390 1395 1402 1408 1410 1418 1416 1426 1428 1429 1426 1425 1424 1423 1424 1425 1425 1424 1423 1422 1420 1420 1418 1416 1415 1413 1411 1409 1407 1404 1402 1399 1397 1394 1392
1310 1316 1319 1321 1324 1326 1328 1331 1341 1351 1362 1369 1371 1374 1375 1375 1379 1381 1387 1395 1401 1406 1408 1410 1411 1414 1421 1419 1421 1419 1419 1420 1421 1422 1422 1422 1421 1420 1420 1419 1418 1417 1416 1414 1412 1410 1408 1405 1403 1401 1398 1395 1392 1389
1318 1320 1322 1325 1327 1329 1336 1344 1349 1361 1371 1372 1374 1375 1378 1381 1385 1390 1395 1400 1403 1406 1407 1408 1411 1414 1413 1414 1414 1416 1417 1418 1419 1420 1420 1420 1420 1419 1419 1418 1417 1416 1415 1413 1411 1409 1407 1405 1402 1399 1396 1392 1389 1386
1324 1326 1327 1329 1330 1334 1345 1354 1358 1364 1374 1378 1379 1382 1385 1388 1393 1397 1401 1403 1406 1407 1407 1407 1406 1406 1408 1410 1412 1414 1415 1415 1416 1418 1419 1419 1419 1418 1418 1417 1416 1415 1414 1412 1410 1408 1405 1402 1400 1397 1393 1390 1385 1381
1330 1331 1332 1333 1334 1340 1351 1358 1363 1369 1375 1379 1384 1388 1393 1396 1398 1400 1402 1404 1406 1404 1403 1403 1403 1405 1407 1409 1410 1411 1412 1413 1414 1416 1417 1418 1418 1418 1417 1416 1415 1414 1412 1410 1408 1405 1402 1399 1396 1393 1389 1385 1381 1377
1333 1335 1336 1338 1343 1351 1360 1365 1369 1374 1379 1383 1388 1390 1393 1396 1397 1399 1400 1401 1399 1397 1398 1399 1401 1403 1405 1406 1408 1409 1411 1412 1413 1415 1415 1416 1416 1416 1416 1415 1414 1412 1410 1408 1405 1403 1400 1396 1393 1389 1385 1381 1377 1372
1338 1340 1342 1346 1350 1358 1370 1369 1371 1374 1380 1384 1386 1388 1390 1391 1392 1395 1395 1393 1392 1393 1395 1397 1399 1401 1402 1405 1407 1409 1410 1411 1412 1413 1414 1414 1415 1415 1414 1413 1412 1410 1408 1406 1403 1400 1397 1394 1390 1386 1382 1378 1373 1368
1341 1343 1346 1350 1354 1364 1366 1368 1370 1373 1377 1381 1382 1385 1387 1388 1391 1391 1390 1388 1388 1389 1392 1394 1396 1399 1402 1404 1406 1408 1409 1410 1410 1411 1412 1412 1413 1413 1412 1411 1410 1408 1406 1403 1400 1398 1395 1391 1388 1384 1380 1375 1370 1365
1344 1353 1353 1358 1360 1363 1369 1372 1373 1374 1381 1381 1383 1386 1386 1387 1389 1391 1388 1383 1384 1386 1389 1392 1395 1398 1400 1402 1404 1406 1407 1408 1408 1409 1410 1410 1410 1410 1410 1409 1407 1405 1403 1401 1398 1395 1392 1389 1386 1382 1378 1373 1368 1363
1354 1356 1358 1360 1363 1364 1368 1374 1376 1378 1378 1381 1382 1383 1384 1387 1392 1389 1382 1378 1380 1383 1386 1390 1393 1396 1398 1400 1401 1403 1404 1405 1406 1407 1408 1409 1409 1409 1408 1407 1405 1404 1401 1399 1396 1393 1390 1387 1384 1380 1376 1372 1367 1362
1359 1360 1359 1360 1361 1363 1367 1369 1371 1373 1378 1380 1380 1384 1386 1392 1390 1380 1378 1379 1380 1383 1387 1390 1393 1395 1396 1397 1398 1400 1401 1403 1404 1405 1406 1407 1407 1406 1406 1404 1403 1402 1399 1396 1394 1391 1388 1385 1382 1379 1375 1371 1367 1362
1358 1360 1363 1363 1363 1364 1368 1371 1373 1374 1373 1374 1377 1383 1385 1384 1381 1377 1377 1380 1382 1385 1387 1389 1391 1393 1394 1395 1396 1397 1399 1401 1402 1403 1404 1405 1404 1404 1403 1401 1400 1398 1397 1395 1392 1390 1387 1385 1382 1378 1375 1371 1368 1364
1360 1361 1363 1365 1365 1366 1367 1368 1369 1369 1371 1372 1375 1378 1377 1376 1377 1377 1378 1381 1383 1385 1386 1388 1389 1390 1391 1393 1394 1396 1397 1399 1400 1401 1402 1403 1402 1402 1400 1399 1398 1396 1395 1393 1391 1388 1386 1384 1381 1378 1375 1372 1368 1365
1362 1363 1364 1367 1369 1369 1367 1368 1369 1370 1371 1372 1373 1374 1375 1376 1377 1378 1379 1381 1382 1383 1384 1386 1387 1388 1389 1391 1392 1394 1396 1397 1398 1400 1400 1400 1400 1399 1398 1397 1396 1394 1393 1391 1390 1388 1385 1383 1381 1378 1376 1373 1371 1367
1363 1364 1365 1366 1367 1367 1367 1368 1368 1369 1370 1370 1371 1373 1373 1374 1374 1375 1376 1377 1378 1379 1380 1382 1384 1385 1387 1388 1390 1392 1394 1395 1396 1397 1398 1398 1397 1396 1395 1395 1394 1392 1391 1390 1388 1386 1384 1382 1380 1378 1376 1374 1371 1369
1364 1365 1366 1368 1367 1367 1367 1367 1367 1367 1367 1368 1368 1369 1370 1371 1371 1371 1369 1370 1372 1374 1377 1379 1381 1383 1385 1387 1389 1390 1392 1393 1394 1395 1395 1395 1394 1394 1393 1392 1392 1390 1389 1388 1386 1385 1383 1382 1380 1378 1376 1374 1372 1370
1365 1365 1366 1366 1366 1367 1368 1368 1367 1367 1368 1368 1368 1369 1369 1370 1370 1369 1368 1368 1369 1371 1375 1378 1380 1382 1384 1386 1388 1389 1390 1391 1392 1392 1392 1393 1392 1392 1391 1390 1390 1388 1387 1386 1385 1384 1383 1381 1379 1378 1376 1374 1372 1370